Temp
70 69 67 66 65 65 64 64 64 63 63 63 62 62 61 60 60 60 59 59 59 59 59 59 59 59 60 59 59 58 58 58 58 59 59 59 58 58 58 57 57 57 56 56 56 56 56 56 56 55 55 55 55 55 55 55 55 55 55 55 54 54 54 53 53 53 53 53 53
70 69 67 66 66 65 64 64 63 63 63 63 62 62 61 61 60 60 60 60 60 60 60 60 60 60 59 59 59 58 58 58 58 59 59 58 58 58 57 57 56 56 56 56 56 56 56 56 55 54 54 54 54 54 55 55 55 54 54 54 54 54 53 53 53 53 53 53 53
70 69 68 67 66 65 64 63 63 63 63 63 62 62 62 62 61 61 61 61 61 61 60 60 60 59 59 58 58 58 58 58 58 58 58 58 57 57 57 56 56 56 56 56 56 55 55 55 55 54 54 53 53 54 54 55 55 54 54 54 54 53 53 52 52 52 52 52 52
70 69 68 67 66 65 64 64 63 63 63 62 63 63 63 63 62 62 62 62 61 61 60 59 60 59 59 58 58 58 58 58 58 58 58 57 57 57 56 56 56 55 55 55 55 55 55 55 55 54 54 54 54 54 54 55 55 54 53 53 53 53 52 52 52 52 52 51 51
69 69 68 67 66 66 65 64 63 63 63 62 62 62 63 63 63 62 61 61 60 60 60 60 60 59 59 58 58 58 58 58 58 57 57 57 56 56 56 55 55 55 55 55 55 55 55 55 54 54 54 54 54 54 54 55 55 54 53 53 53 52 52 52 52 51 51 51 51
69 68 68 67 67 66 65 64 64 63 63 62 62 62 62 62 61 61 60 60 60 60 60 60 60 59 58 58 57 57 57 57 57 57 57 56 56 56 55 55 55 55 55 54 54 54 54 55 54 54 53 54 54 54 55 55 54 53 53 52 52 52 51 51 51 51 51 50 50
68 67 67 66 66 65 64 64 64 64 63 62 62 62 62 61 60 60 60 60 60 60 59 59 59 58 58 57 57 57 56 56 56 56 56 56 55 55 55 55 55 55 54 54 54 54 54 54 53 53 53 53 53 53 54 54 53 52 52 51 52 51 51 50 50 50 50 49 49
67 66 66 65 65 64 64 64 64 63 62 61 61 61 61 60 60 60 60 60 60 59 59 59 58 58 57 57 57 56 56 56 56 56 56 55 55 55 55 54 54 54 54 54 54 54 54 53 53 53 53 53 52 53 53 53 52 51 51 51 51 51 51 50 49 49 49 49 48
65 65 65 64 64 64 63 63 63 62 61 60 61 61 61 60 60 60 60 60 59 59 59 58 58 58 57 57 57 56 56 56 55 55 55 55 55 54 54 54 54 54 54 54 54 54 54 53 53 52 52 52 52 52 52 52 51 50 50 50 50 50 50 50 49 49 49 48 47
64 64 63 63 63 63 63 62 62 62 61 60 61 61 61 60 60 60 60 60 59 59 58 58 58 57 57 57 56 56 55 55 55 55 55 55 55 54 54 53 53 53 54 54 54 54 53 53 52 52 52 52 52 51 51 51 50 50 49 49 49 49 49 50 50 49 48 47 46
63 63 63 62 62 62 61 61 61 61 60 60 60 60 60 60 60 60 60 59 58 58 57 57 57 57 57 56 56 56 55 55 55 55 55 55 55 54 54 53 53 53 54 53 53 53 53 52 51 51 51 51 51 51 51 50 50 49 48 48 48 48 48 48 48 48 47 47 46
63 63 62 61 61 60 60 60 60 60 60 59 60 60 60 60 60 60 59 58 57 57 57 57 57 57 56 55 55 55 55 55 55 55 55 54 54 54 54 53 53 53 53 53 53 52 51 51 51 51 51 51 51 51 50 50 49 48 48 47 47 47 47 47 47 46 46 46 45
63 62 61 61 60 59 58 58 58 59 59 59 60 60 60 59 59 59 59 57 57 57 57 56 56 56 56 55 55 55 55 55 55 55 54 54 54 54 53 52 52 53 53 53 52 51 51 50 50 50 50 50 50 50 50 49 49 48 47 47 46 46 45 45 45 45 45 45 45
62 61 60 60 59 58 58 58 58 58 58 59 59 60 60 59 59 59 58 57 57 57 56 56 56 56 55 55 55 55 55 55 55 55 54 54 54 53 52 51 51 51 52 52 51 51 50 49 49 49 49 49 50 50 50 49 48 47 46 45 45 44 44 44 44 44 44 43 44
61 60 59 58 57 57 57 57 57 58 58 58 58 59 59 59 59 58 58 57 56 56 55 55 55 55 55 55 55 55 55 55 55 55 54 54 54 53 52 51 49 50 50 51 51 50 49 49 49 49 49 49 49 49 49 49 48 47 46 45 44 44 44 44 44 43 43 42 42
60 59 58 57 56 56 56 56 57 57 57 57 58 58 58 58 58 57 57 56 55 55 54 54 54 54 54 55 55 55 55 55 55 54 54 53 53 52 51 50 48 48 48 49 49 49 49 48 48 48 48 48 48 48 48 48 47 46 46 45 44 44 44 43 43 43 42 42 42
58 57 56 55 55 55 55 56 56 57 57 57 57 57 57 57 56 56 56 55 55 54 54 54 54 54 53 54 54 54 54 54 54 54 53 53 52 51 50 49 47 46 46 47 47 47 47 46 47 47 48 47 47 47 47 46 46 46 45 45 44 44 43 43 42 42 41 41 41
57 56 55 55 55 55 55 56 56 56 56 56 56 56 55 55 55 55 55 55 54 54 53 53 53 53 53 53 53 53 53 53 53 53 53 52 52 51 50 48 46 46 45 45 45 46 46 46 46 47 47 47 46 46 46 45 45 45 45 44 44 43 42 41 40 40 41 41 41
56 56 55 55 55 55 55 56 56 56 56 56 55 55 55 55 55 54 54 54 54 54 53 53 53 53 53 53 52 53 53 52 53 52 52 52 51 50 49 48 46 45 44 43 44 45 45 46 46 47 47 46 45 45 45 45 44 44 44 43 42 40 39 38 39 40 41 41 41
56 55 55 55 55 55 55 56 56 56 56 56 55 55 54 54 54 54 54 54 54 53 53 53 52 52 52 52 52 52 52 52 52 52 52 51 50 50 49 48 46 44 42 40 42 42 44 46 47 47 47 46 46 45 44 44 44 43 42 42 41 40 38 39 40 41 41 42 42
56 56 55 55 55 55 56 56 56 56 56 55 55 54 54 53 54 53 53 53 53 53 53 52 52 52 52 51 51 51 51 51 51 51 51 51 50 49 48 47 45 42 39 39 40 40 42 44 46 46 46 46 44 43 43 43 43 42 42 43 42 42 41 42 42 42 42 42 42
56 56 56 55 55 56 56 56 56 56 55 55 54 54 53 53 53 53 53 53 53 53 53 52 52 52 52 51 51 51 51 51 51 51 51 50 49 49 49 47 43 39 37 37 38 38 38 41 43 43 42 41 40 41 42 43 43 43 43 43 43 43 44 44 44 44 43 43 43
57 56 56 55 55 56 56 56 56 56 55 54 54 53 53 53 53 53 53 53 53 53 53 53 52 52 52 51 51 50 50 50 50 50 50 50 49 49 48 47 42 38 35 36 36 35 35 36 37 37 36 36 36 38 41 42 42 42 41 41 42 43 44 44 44 44 44 44 45
56 56 55 55 55 55 56 56 55 55 54 54 53 53 53 53 53 53 53 53 53 53 53 53 53 52 52 51 51 50 50 50 49 50 50 50 49 49 48 46 42 39 37 36 37 37 36 36 35 35 35 36 37 38 40 41 39 38 38 39 41 42 43 44 44 44 45 45 45
56 56 55 55 55 55 55 55 55 54 54 53 53 53 53 53 53 53 53 53 53 53 53 53 52 52 51 51 51 50 50 49 49 49 49 49 49 49 48 47 44 41 38 36 40 41 41 41 39 38 38 39 40 41 41 39 37 37 39 40 41 42 42 43 44 44 45 45 45
56 55 55 55 55 55 55 55 54 54 54 53 53 53 53 53 53 53 53 52 53 53 53 53 52 52 51 51 50 50 50 49 49 49 49 49 48 48 47 47 46 42 38 38 42 44 45 45 44 43 43 43 43 43 41 38 38 40 41 42 42 42 43 43 44 44 45 46 45
56 55 55 55 54 54 55 54 54 54 53 53 53 53 53 53 53 53 53 53 53 53 53 52 51 51 51 50 50 49 49 49 49 49 48 48 48 47 47 47 47 43 39 40 44 46 47 47 47 47 46 46 45 43 42 41 41 41 42 42 42 43 43 44 44 45 45 46 46
56 55 55 54 54 54 54 54 54 54 53 53 53 53 53 53 53 53 53 53 53 52 52 51 51 51 50 49 49 49 48 48 48 48 48 48 48 47 47 47 46 44 43 44 46 47 48 48 48 48 48 47 46 45 44 43 44 44 44 43 44 44 44 44 45 45 46 46 46
55 55 54 54 54 54 54 54 54 54 54 54 53 53 53 53 53 53 53 53 52 51 51 50 50 50 50 49 48 48 48 48 48 48 47 47 47 47 47 47 46 46 47 48 48 48 49 49 49 49 49 49 48 46 45 44 45 46 46 46 46 46 46 46 46 46 46 46 47
55 55 54 54 54 54 54 54 54 55 54 54 54 53 53 53 53 53 53 52 52 51 51 50 50 50 49 49 49 48 48 48 48 48 47 47 47 47 47 47 46 46 47 49 49 50 50 50 50 50 50 49 49 47 45 45 45 46 46 47 47 47 47 47 47 47 47 47 47
56 55 55 54 54 54 55 55 55 55 55 54 54 53 53 53 52 52 52 52 52 52 51 51 50 50 50 50 50 49 49 48 48 48 47 47 47 47 47 47 47 46 47 49 50 50 50 50 50 50 50 50 49 47 46 45 45 46 46 47 47 47 47 47 47 47 47 47 47
56 55 55 55 54 55 55 55 55 55 55 54 54 53 53 52 52 52 53 53 52 52 52 51 50 50 50 51 50 50 49 49 48 47 47 46 46 47 47 47 47 47 47 49 50 50 50 51 51 51 51 50 50 48 47 46 46 46 46 46 46 46 46 47 47 47 47 47 47
55 55 55 55 55 55 55 55 55 55 55 54 54 53 53 52 52 52 53 53 52 52 52 51 51 50 50 51 50 49 49 48 48 48 47 47 47 47 47 48 48 48 49 50 50 51 51 51 51 51 51 51 50 49 48 47 47 47 47 46 46 46 46 46 46 46 47 47 47
55 55 55 54 54 55 55 55 55 55 54 54 54 53 52 51 51 52 52 53 53 53 52 52 52 51 51 51 50 49 49 48 48 48 48 48 48 48 48 48 49 49 50 51 51 51 51 51 51 51 51 51 50 49 48 48 48 48 47 47 47 46 46 46 46 47 47 47 47
54 54 54 54 54 55 55 55 55 54 54 54 53 52 52 51 51 52 52 53 53 53 53 53 52 52 51 51 50 49 49 49 49 49 49 49 48 48 48 48 49 50 51 51 51 51 51 51 51 51 51 51 49 49 48 48 48 48 47 47 47 46 46 45 46 47 47 48 47
54 54 54 54 54 54 54 54 54 54 53 53 52 52 51 52 52 52 53 53 53 52 52 52 51 51 51 50 49 49 49 49 49 49 49 49 49 49 49 49 50 50 51 51 51 51 51 51 51 51 51 50 48 48 47 48 47 47 47 47 47 47 46 46 46 46 47 47 47
54 54 54 54 54 54 54 54 54 53 53 52 52 51 51 52 52 53 53 52 52 52 51 51 50 50 49 49 48 48 48 48 48 49 49 50 49 49 49 49 50 50 51 51 52 52 51 51 51 51 50 49 47 47 47 47 47 47 46 46 46 46 47 47 47 46 46 46 47
54 54 54 54 54 54 54 54 53 53 52 52 52 52 52 52 52 52 52 52 52 51 51 50 49 49 49 48 48 48 48 48 49 49 49 50 50 50 49 50 50 50 50 51 51 51 51 51 51 51 50 48 47 47 46 46 46 46 46 46 46 46 46 47 47 46 46 46 47
53 54 54 54 54 54 54 53 53 52 52 52 52 52 53 53 52 52 52 52 52 51 50 49 49 49 49 49 49 48 49 49 49 49 49 50 50 50 50 50 50 50 50 51 51 51 51 51 51 51 50 48 47 46 46 46 46 45 45 45 45 46 46 46 46 47 47 47 48
53 54 54 54 54 54 54 53 53 52 52 52 52 53 53 53 52 52 51 51 51 51 50 49 49 49 49 49 49 49 49 49 49 50 50 50 50 50 50 50 49 50 50 50 50 50 50 50 50 50 50 48 47 47 46 46 45 44 44 44 44 45 45 46 46 47 47 47 48
53 53 53 54 54 54 53 53 53 52 52 52 53 53 53 53 52 51 51 51 51 50 50 50 49 49 49 49 48 48 48 49 49 50 50 50 50 50 50 50 50 50 50 50 50 50 50 50 50 50 49 48 47 46 46 45 44 43 43 43 44 44 44 45 45 46 46 47 47
MSLP
1012.70 1012.93 1013.22 1013.46 1013.66 1013.90 1014.09 1014.34 1014.53 1014.73 1014.93 1015.14 1015.38 1015.58 1015.82 1016.09 1016.38 1016.66 1016.93 1017.17 1017.41 1017.66 1017.85 1018.05 1018.22 1018.41 1018.58 1018.78 1018.93 1019.09 1019.29 1019.41 1019.58 1019.70 1019.85 1019.97 1020.09 1020.22 1020.29 1020.38 1020.46 1020.53 1020.61 1020.70 1020.82 1020.93 1021.02 1021.09 1021.22 1021.29 1021.38 1021.46 1021.49 1021.49 1021.53 1021.58 1021.66 1021.70 1021.73 1021.78 1021.82 1021.82 1021.90 1021.90 1021.93 1021.93 1021.93 1021.97 1021.97
1012.66 1012.90 1013.14 1013.38 1013.61 1013.85 1014.09 1014.29 1014.49 1014.70 1014.90 1015.09 1015.26 1015.49 1015.78 1016.05 1016.26 1016.53 1016.82 1017.02 1017.22 1017.46 1017.66 1017.90 1018.09 1018.26 1018.46 1018.66 1018.82 1019.02 1019.17 1019.29 1019.41 1019.58 1019.70 1019.85 1019.97 1020.09 1020.22 1020.34 1020.38 1020.46 1020.53 1020.66 1020.73 1020.82 1020.93 1021.05 1021.14 1021.22 1021.34 1021.41 1021.46 1021.49 1021.49 1021.53 1021.66 1021.66 1021.70 1021.73 1021.78 1021.82 1021.85 1021.85 1021.90 1021.93 1021.97 1021.97 1021.97
1012.53 1012.82 1013.09 1013.34 1013.49 1013.78 1014.02 1014.22 1014.41 1014.66 1014.82 1015.05 1015.22 1015.46 1015.70 1015.93 1016.14 1016.38 1016.66 1016.82 1017.05 1017.29 1017.49 1017.73 1017.93 1018.14 1018.38 1018.53 1018.73 1018.90 1019.05 1019.17 1019.29 1019.46 1019.61 1019.78 1019.90 1020.02 1020.14 1020.26 1020.29 1020.38 1020.49 1020.58 1020.66 1020.82 1020.85 1020.93 1021.05 1021.14 1021.26 1021.38 1021.38 1021.41 1021.41 1021.46 1021.53 1021.61 1021.66 1021.66 1021.73 1021.78 1021.82 1021.85 1021.90 1021.93 1021.93 1021.97 1021.97
1012.46 1012.70 1012.97 1013.22 1013.41 1013.66 1013.90 1014.14 1014.34 1014.53 1014.82 1014.97 1015.22 1015.41 1015.66 1015.90 1016.09 1016.29 1016.53 1016.73 1016.93 1017.17 1017.38 1017.61 1017.82 1018.02 1018.22 1018.46 1018.66 1018.82 1018.93 1019.09 1019.22 1019.34 1019.49 1019.70 1019.82 1019.93 1020.09 1020.17 1020.22 1020.34 1020.46 1020.53 1020.66 1020.73 1020.82 1020.90 1020.97 1021.09 1021.17 1021.22 1021.22 1021.29 1021.34 1021.38 1021.46 1021.53 1021.61 1021.66 1021.70 1021.73 1021.82 1021.82 1021.90 1021.93 1021.93 1021.93 1021.97
1012.41 1012.66 1012.90 1013.09 1013.34 1013.58 1013.82 1014.05 1014.29 1014.53 1014.78 1014.93 1015.17 1015.38 1015.53 1015.73 1015.97 1016.22 1016.41 1016.66 1016.85 1017.09 1017.26 1017.46 1017.66 1017.93 1018.14 1018.29 1018.53 1018.66 1018.82 1018.97 1019.09 1019.26 1019.41 1019.58 1019.70 1019.82 1019.97 1020.09 1020.17 1020.26 1020.38 1020.49 1020.58 1020.66 1020.78 1020.82 1020.93 1021.05 1021.09 1021.14 1021.22 1021.22 1021.22 1021.29 1021.38 1021.46 1021.53 1021.61 1021.70 1021.78 1021.82 1021.82 1021.85 1021.90 1021.93 1021.93 1021.97
1012.38 1012.61 1012.85 1013.05 1013.26 1013.49 1013.82 1014.02 1014.22 1014.46 1014.70 1014.90 1015.09 1015.26 1015.41 1015.66 1015.90 1016.09 1016.34 1016.53 1016.78 1016.97 1017.22 1017.38 1017.58 1017.82 1018.02 1018.22 1018.38 1018.58 1018.73 1018.90 1019.02 1019.17 1019.34 1019.49 1019.66 1019.78 1019.90 1019.97 1020.09 1020.17 1020.29 1020.41 1020.53 1020.61 1020.70 1020.78 1020.90 1021.02 1021.09 1021.09 1021.14 1021.17 1021.22 1021.26 1021.34 1021.38 1021.49 1021.58 1021.66 1021.70 1021.78 1021.82 1021.82 1021.82 1021.90 1021.90 1021.93
1012.38 1012.61 1012.85 1013.05 1013.26 1013.49 1013.73 1013.93 1014.14 1014.38 1014.66 1014.82 1014.97 1015.09 1015.29 1015.49 1015.78 1015.97 1016.22 1016.41 1016.66 1016.93 1017.09 1017.29 1017.49 1017.66 1017.90 1018.09 1018.26 1018.46 1018.61 1018.78 1018.93 1019.05 1019.22 1019.38 1019.53 1019.66 1019.78 1019.85 1019.97 1020.09 1020.22 1020.34 1020.46 1020.58 1020.66 1020.73 1020.82 1020.93 1021.02 1021.05 1021.09 1021.14 1021.22 1021.22 1021.34 1021.38 1021.46 1021.49 1021.53 1021.66 1021.70 1021.70 1021.78 1021.82 1021.82 1021.82 1021.82
1012.49 1012.66 1012.90 1013.05 1013.26 1013.49 1013.66 1013.85 1014.02 1014.29 1014.58 1014.78 1014.90 1015.02 1015.17 1015.41 1015.66 1015.90 1016.09 1016.34 1016.53 1016.78 1016.97 1017.22 1017.38 1017.49 1017.70 1017.93 1018.09 1018.26 1018.46 1018.61 1018.82 1018.93 1019.09 1019.26 1019.41 1019.53 1019.66 1019.78 1019.90 1020.02 1020.09 1020.22 1020.38 1020.49 1020.58 1020.70 1020.82 1020.85 1020.93 1020.97 1021.05 1021.09 1021.14 1021.22 1021.29 1021.34 1021.38 1021.41 1021.49 1021.49 1021.58 1021.66 1021.70 1021.78 1021.78 1021.82 1021.82
1012.58 1012.78 1012.93 1013.09 1013.26 1013.46 1013.66 1013.82 1014.02 1014.22 1014.41 1014.66 1014.82 1014.93 1015.09 1015.38 1015.58 1015.78 1015.97 1016.22 1016.41 1016.66 1016.85 1017.09 1017.22 1017.38 1017.58 1017.82 1017.93 1018.09 1018.26 1018.46 1018.66 1018.82 1018.97 1019.14 1019.26 1019.41 1019.53 1019.66 1019.82 1019.90 1020.05 1020.17 1020.26 1020.38 1020.49 1020.61 1020.70 1020.78 1020.82 1020.90 1020.93 1021.02 1021.09 1021.14 1021.22 1021.29 1021.38 1021.38 1021.41 1021.41 1021.49 1021.53 1021.58 1021.66 1021.66 1021.70 1021.73
1012.53 1012.78 1012.93 1013.14 1013.29 1013.46 1013.61 1013.82 1013.93 1014.14 1014.34 1014.58 1014.73 1014.90 1015.05 1015.26 1015.46 1015.66 1015.85 1016.05 1016.29 1016.53 1016.78 1016.93 1017.14 1017.34 1017.49 1017.66 1017.82 1017.97 1018.14 1018.34 1018.49 1018.66 1018.82 1019.02 1019.14 1019.29 1019.41 1019.53 1019.66 1019.82 1019.93 1020.09 1020.17 1020.26 1020.38 1020.53 1020.58 1020.66 1020.73 1020.82 1020.90 1020.93 1021.05 1021.09 1021.17 1021.22 1021.29 1021.34 1021.38 1021.38 1021.38 1021.41 1021.49 1021.49 1021.53 1021.58 1021.61
1012.49 1012.70 1012.90 1013.09 1013.29 1013.49 1013.66 1013.82 1013.93 1014.09 1014.26 1014.49 1014.66 1014.82 1014.97 1015.22 1015.38 1015.53 1015.73 1015.93 1016.22 1016.41 1016.61 1016.82 1016.97 1017.17 1017.34 1017.49 1017.70 1017.85 1018.02 1018.22 1018.38 1018.53 1018.70 1018.85 1019.02 1019.14 1019.26 1019.41 1019.49 1019.66 1019.82 1019.93 1020.09 1020.22 1020.34 1020.41 1020.53 1020.58 1020.66 1020.73 1020.82 1020.90 1020.97 1021.05 1021.09 1021.14 1021.22 1021.26 1021.29 1021.34 1021.38 1021.38 1021.38 1021.41 1021.46 1021.49 1021.49
1012.46 1012.66 1012.85 1013.09 1013.26 1013.46 1013.61 1013.78 1013.93 1014.09 1014.22 1014.38 1014.53 1014.70 1014.90 1015.09 1015.29 1015.49 1015.66 1015.93 1016.09 1016.29 1016.53 1016.70 1016.90 1017.05 1017.22 1017.41 1017.58 1017.73 1017.90 1018.09 1018.26 1018.41 1018.58 1018.73 1018.85 1018.97 1019.14 1019.34 1019.46 1019.53 1019.66 1019.82 1019.97 1020.09 1020.22 1020.34 1020.41 1020.53 1020.58 1020.66 1020.73 1020.82 1020.90 1020.93 1020.97 1021.05 1021.09 1021.14 1021.22 1021.22 1021.26 1021.29 1021.34 1021.38 1021.41 1021.46 1021.49
1012.38 1012.58 1012.82 1012.97 1013.22 1013.38 1013.58 1013.70 1013.82 1013.97 1014.14 1014.26 1014.41 1014.61 1014.82 1014.97 1015.22 1015.38 1015.61 1015.82 1016.02 1016.22 1016.41 1016.66 1016.82 1016.93 1017.14 1017.29 1017.46 1017.66 1017.78 1017.93 1018.09 1018.29 1018.46 1018.61 1018.78 1018.90 1019.05 1019.22 1019.38 1019.49 1019.58 1019.73 1019.90 1020.02 1020.14 1020.26 1020.38 1020.41 1020.49 1020.58 1020.66 1020.70 1020.78 1020.82 1020.93 1020.93 1020.97 1021.02 1021.09 1021.09 1021.17 1021.22 1021.26 1021.34 1021.38 1021.38 1021.38
1012.29 1012.53 1012.73 1012.93 1013.09 1013.34 1013.49 1013.61 1013.78 1013.90 1014.05 1014.17 1014.34 1014.49 1014.66 1014.90 1015.09 1015.29 1015.49 1015.70 1015.90 1016.09 1016.34 1016.58 1016.73 1016.90 1017.05 1017.17 1017.34 1017.49 1017.66 1017.82 1017.97 1018.17 1018.29 1018.46 1018.61 1018.78 1018.93 1019.09 1019.26 1019.38 1019.49 1019.66 1019.82 1019.93 1020.05 1020.17 1020.29 1020.38 1020.46 1020.53 1020.53 1020.61 1020.66 1020.70 1020.78 1020.82 1020.90 1020.93 1020.97 1021.02 1021.09 1021.09 1021.17 1021.22 1021.26 1021.26 1021.26
1012.22 1012.46 1012.66 1012.85 1013.05 1013.22 1013.38 1013.53 1013.66 1013.82 1013.93 1014.09 1014.22 1014.38 1014.61 1014.82 1015.02 1015.22 1015.41 1015.66 1015.82 1016.05 1016.26 1016.53 1016.66 1016.85 1016.97 1017.14 1017.26 1017.41 1017.58 1017.70 1017.85 1018.02 1018.17 1018.34 1018.49 1018.66 1018.85 1019.05 1019.22 1019.38 1019.46 1019.58 1019.73 1019.90 1019.97 1020.09 1020.22 1020.29 1020.38 1020.46 1020.49 1020.53 1020.58 1020.61 1020.66 1020.70 1020.78 1020.82 1020.85 1020.93 1020.93 1020.97 1021.05 1021.09 1021.14 1021.14 1021.14
1012.22 1012.41 1012.66 1012.82 1013.02 1013.17 1013.29 1013.46 1013.61 1013.78 1013.90 1014.05 1014.22 1014.38 1014.53 1014.78 1015.02 1015.22 1015.46 1015.61 1015.82 1016.09 1016.29 1016.46 1016.61 1016.82 1016.97 1017.09 1017.26 1017.38 1017.49 1017.61 1017.78 1017.90 1018.05 1018.22 1018.38 1018.58 1018.78 1018.93 1019.17 1019.29 1019.41 1019.53 1019.66 1019.82 1019.93 1020.05 1020.17 1020.22 1020.34 1020.38 1020.41 1020.49 1020.53 1020.53 1020.58 1020.61 1020.66 1020.70 1020.78 1020.82 1020.85 1020.90 1020.93 1020.93 1020.97 1020.97 1020.97
1012.22 1012.41 1012.66 1012.82 1012.97 1013.14 1013.26 1013.41 1013.58 1013.73 1013.90 1014.05 1014.22 1014.38 1014.58 1014.78 1015.05 1015.26 1015.46 1015.61 1015.82 1016.09 1016.26 1016.41 1016.58 1016.78 1016.93 1017.09 1017.22 1017.34 1017.41 1017.53 1017.66 1017.82 1017.93 1018.09 1018.26 1018.46 1018.66 1018.85 1019.09 1019.26 1019.38 1019.49 1019.66 1019.78 1019.90 1020.02 1020.09 1020.22 1020.29 1020.34 1020.38 1020.41 1020.46 1020.49 1020.53 1020.53 1020.58 1020.61 1020.66 1020.66 1020.70 1020.73 1020.82 1020.82 1020.85 1020.82 1020.82
1012.22 1012.41 1012.61 1012.82 1012.93 1013.09 1013.26 1013.38 1013.53 1013.70 1013.85 1014.05 1014.22 1014.46 1014.66 1014.82 1015.09 1015.26 1015.46 1015.61 1015.78 1015.97 1016.17 1016.38 1016.53 1016.70 1016.82 1016.97 1017.09 1017.22 1017.38 1017.46 1017.53 1017.66 1017.82 1017.93 1018.17 1018.38 1018.58 1018.82 1019.05 1019.22 1019.38 1019.49 1019.58 1019.73 1019.85 1019.97 1020.09 1020.17 1020.22 1020.26 1020.34 1020.38 1020.41 1020.46 1020.46 1020.49 1020.49 1020.49 1020.53 1020.53 1020.53 1020.61 1020.66 1020.66 1020.70 1020.70 1020.66
1012.22 1012.41 1012.61 1012.82 1012.93 1013.09 1013.22 1013.38 1013.49 1013.66 1013.85 1014.02 1014.22 1014.46 1014.66 1014.82 1015.02 1015.22 1015.38 1015.58 1015.73 1015.90 1016.09 1016.29 1016.49 1016.61 1016.78 1016.90 1017.02 1017.14 1017.22 1017.34 1017.46 1017.58 1017.73 1017.93 1018.14 1018.34 1018.53 1018.73 1018.97 1019.17 1019.34 1019.46 1019.58 1019.70 1019.82 1019.93 1019.97 1020.09 1020.14 1020.22 1020.22 1020.29 1020.34 1020.38 1020.38 1020.38 1020.38 1020.38 1020.38 1020.41 1020.46 1020.49 1020.53 1020.53 1020.53 1020.53 1020.49
1012.17 1012.38 1012.53 1012.73 1012.90 1013.05 1013.22 1013.34 1013.46 1013.61 1013.78 1013.93 1014.14 1014.38 1014.58 1014.73 1014.93 1015.09 1015.29 1015.49 1015.66 1015.85 1016.02 1016.22 1016.38 1016.53 1016.66 1016.82 1016.93 1017.05 1017.17 1017.29 1017.38 1017.53 1017.70 1017.90 1018.09 1018.26 1018.46 1018.66 1018.90 1019.09 1019.34 1019.46 1019.58 1019.70 1019.78 1019.82 1019.90 1019.93 1020.02 1020.05 1020.09 1020.14 1020.22 1020.22 1020.22 1020.26 1020.26 1020.26 1020.26 1020.29 1020.29 1020.34 1020.34 1020.34 1020.34 1020.34 1020.29
1012.09 1012.26 1012.46 1012.66 1012.78 1012.93 1013.09 1013.22 1013.38 1013.49 1013.70 1013.90 1014.09 1014.29 1014.49 1014.70 1014.85 1015.02 1015.17 1015.38 1015.58 1015.78 1015.93 1016.09 1016.26 1016.41 1016.53 1016.70 1016.90 1017.02 1017.14 1017.26 1017.38 1017.49 1017.66 1017.85 1018.05 1018.22 1018.41 1018.61 1018.82 1019.05 1019.29 1019.46 1019.53 1019.66 1019.73 1019.78 1019.82 1019.82 1019.82 1019.90 1019.93 1019.93 1020.02 1020.02 1020.09 1020.09 1020.09 1020.09 1020.09 1020.05 1020.05 1020.09 1020.09 1020.09 1020.09 1020.05 1020.02
1011.97 1012.17 1012.38 1012.53 1012.66 1012.82 1012.93 1013.09 1013.26 1013.46 1013.66 1013.85 1014.05 1014.22 1014.46 1014.66 1014.82 1014.93 1015.14 1015.34 1015.49 1015.66 1015.85 1016.02 1016.17 1016.29 1016.46 1016.61 1016.82 1016.93 1017.09 1017.22 1017.38 1017.49 1017.66 1017.82 1018.02 1018.22 1018.38 1018.58 1018.82 1019.05 1019.26 1019.38 1019.49 1019.61 1019.70 1019.73 1019.73 1019.73 1019.78 1019.82 1019.85 1019.85 1019.85 1019.90 1019.90 1019.90 1019.85 1019.85 1019.82 1019.78 1019.78 1019.78 1019.78 1019.73 1019.70 1019.66 1019.66
1011.93 1012.14 1012.34 1012.53 1012.66 1012.82 1012.93 1013.09 1013.22 1013.38 1013.58 1013.82 1013.97 1014.22 1014.41 1014.61 1014.78 1014.93 1015.17 1015.38 1015.49 1015.61 1015.78 1015.93 1016.09 1016.22 1016.38 1016.53 1016.70 1016.85 1017.02 1017.17 1017.29 1017.46 1017.61 1017.82 1017.97 1018.14 1018.34 1018.53 1018.78 1019.02 1019.22 1019.29 1019.41 1019.58 1019.66 1019.66 1019.66 1019.70 1019.78 1019.82 1019.82 1019.82 1019.82 1019.78 1019.73 1019.70 1019.70 1019.66 1019.66 1019.58 1019.49 1019.49 1019.46 1019.41 1019.38 1019.29 1019.26
1011.93 1012.14 1012.34 1012.49 1012.66 1012.82 1012.90 1013.05 1013.22 1013.38 1013.53 1013.73 1013.93 1014.14 1014.34 1014.53 1014.73 1014.93 1015.09 1015.26 1015.41 1015.53 1015.70 1015.85 1016.02 1016.17 1016.38 1016.53 1016.70 1016.82 1016.93 1017.09 1017.22 1017.41 1017.58 1017.78 1017.93 1018.09 1018.26 1018.46 1018.70 1018.90 1019.05 1019.22 1019.34 1019.46 1019.49 1019.58 1019.66 1019.66 1019.70 1019.73 1019.73 1019.73 1019.66 1019.61 1019.61 1019.61 1019.58 1019.53 1019.49 1019.41 1019.34 1019.22 1019.22 1019.14 1019.09 1018.97 1018.93
1011.93 1012.09 1012.34 1012.49 1012.66 1012.73 1012.85 1013.02 1013.14 1013.29 1013.49 1013.66 1013.85 1014.05 1014.26 1014.49 1014.66 1014.82 1015.02 1015.22 1015.34 1015.49 1015.66 1015.82 1015.93 1016.17 1016.38 1016.53 1016.66 1016.82 1016.93 1017.05 1017.17 1017.38 1017.49 1017.66 1017.82 1018.02 1018.22 1018.38 1018.53 1018.78 1018.93 1019.09 1019.09 1019.17 1019.22 1019.26 1019.38 1019.49 1019.53 1019.58 1019.53 1019.49 1019.46 1019.41 1019.41 1019.38 1019.38 1019.34 1019.26 1019.17 1019.09 1018.93 1018.90 1018.82 1018.73 1018.66 1018.61
1011.93 1012.09 1012.26 1012.46 1012.58 1012.70 1012.82 1012.93 1013.09 1013.26 1013.41 1013.61 1013.82 1014.02 1014.22 1014.38 1014.58 1014.73 1014.93 1015.09 1015.22 1015.38 1015.53 1015.78 1015.93 1016.09 1016.26 1016.46 1016.58 1016.73 1016.85 1017.02 1017.09 1017.26 1017.41 1017.58 1017.78 1017.93 1018.05 1018.22 1018.38 1018.58 1018.82 1018.85 1018.85 1018.85 1018.90 1018.93 1019.05 1019.14 1019.22 1019.22 1019.22 1019.14 1019.09 1019.09 1019.14 1019.09 1019.09 1019.05 1018.97 1018.90 1018.78 1018.66 1018.53 1018.41 1018.34 1018.26 1018.22
1011.93 1012.09 1012.22 1012.38 1012.58 1012.66 1012.82 1012.93 1013.09 1013.29 1013.46 1013.61 1013.82 1013.93 1014.14 1014.34 1014.49 1014.66 1014.82 1014.97 1015.17 1015.38 1015.49 1015.70 1015.90 1016.09 1016.22 1016.38 1016.53 1016.66 1016.82 1016.93 1017.09 1017.22 1017.38 1017.49 1017.66 1017.82 1017.93 1018.09 1018.17 1018.38 1018.53 1018.58 1018.58 1018.58 1018.61 1018.66 1018.70 1018.78 1018.82 1018.85 1018.82 1018.78 1018.73 1018.73 1018.73 1018.78 1018.78 1018.70 1018.66 1018.58 1018.46 1018.34 1018.22 1018.09 1017.93 1017.90 1017.82
1011.90 1012.05 1012.22 1012.38 1012.53 1012.66 1012.82 1012.93 1013.14 1013.26 1013.41 1013.53 1013.73 1013.90 1014.05 1014.22 1014.38 1014.53 1014.70 1014.90 1015.05 1015.26 1015.49 1015.66 1015.90 1016.02 1016.17 1016.34 1016.46 1016.58 1016.70 1016.85 1017.02 1017.17 1017.29 1017.38 1017.53 1017.66 1017.82 1017.90 1017.97 1018.09 1018.17 1018.26 1018.29 1018.29 1018.34 1018.38 1018.41 1018.41 1018.46 1018.49 1018.46 1018.41 1018.41 1018.38 1018.38 1018.38 1018.38 1018.34 1018.26 1018.17 1018.09 1017.93 1017.82 1017.73 1017.66 1017.49 1017.46
1011.85 1012.05 1012.22 1012.38 1012.53 1012.66 1012.82 1012.93 1013.09 1013.22 1013.38 1013.53 1013.73 1013.90 1014.05 1014.17 1014.29 1014.46 1014.61 1014.78 1014.97 1015.17 1015.38 1015.58 1015.78 1015.93 1016.09 1016.22 1016.38 1016.53 1016.66 1016.82 1016.93 1017.09 1017.22 1017.38 1017.49 1017.53 1017.61 1017.66 1017.78 1017.82 1017.90 1017.93 1018.02 1018.05 1018.09 1018.09 1018.09 1018.14 1018.17 1018.17 1018.17 1018.14 1018.09 1018.09 1018.05 1018.02 1017.93 1017.90 1017.82 1017.70 1017.66 1017.58 1017.49 1017.38 1017.26 1017.17 1017.09
1011.90 1012.05 1012.22 1012.34 1012.49 1012.61 1012.78 1012.90 1013.05 1013.17 1013.34 1013.49 1013.70 1013.90 1014.05 1014.14 1014.26 1014.38 1014.53 1014.66 1014.85 1015.05 1015.22 1015.46 1015.66 1015.82 1015.93 1016.09 1016.26 1016.46 1016.61 1016.73 1016.90 1017.02 1017.14 1017.22 1017.38 1017.41 1017.49 1017.49 1017.58 1017.61 1017.66 1017.66 1017.73 1017.82 1017.82 1017.82 1017.85 1017.85 1017.82 1017.82 1017.82 1017.82 1017.82 1017.78 1017.73 1017.70 1017.61 1017.49 1017.38 1017.34 1017.22 1017.14 1017.09 1017.02 1016.93 1016.85 1016.82
1011.90 1012.02 1012.17 1012.29 1012.46 1012.58 1012.70 1012.82 1012.97 1013.17 1013.34 1013.49 1013.66 1013.82 1013.93 1014.09 1014.22 1014.34 1014.46 1014.58 1014.78 1014.93 1015.14 1015.38 1015.53 1015.66 1015.78 1015.93 1016.14 1016.29 1016.46 1016.61 1016.78 1016.90 1017.02 1017.09 1017.22 1017.26 1017.34 1017.38 1017.38 1017.41 1017.46 1017.49 1017.49 1017.53 1017.53 1017.58 1017.58 1017.58 1017.53 1017.53 1017.53 1017.53 1017.49 1017.49 1017.41 1017.38 1017.26 1017.17 1017.09 1017.02 1016.93 1016.90 1016.82 1016.73 1016.66 1016.58 1016.53
1011.90 1012.02 1012.14 1012.26 1012.38 1012.53 1012.66 1012.82 1012.97 1013.09 1013.26 1013.41 1013.58 1013.73 1013.90 1014.02 1014.14 1014.26 1014.38 1014.53 1014.70 1014.90 1015.09 1015.26 1015.38 1015.53 1015.66 1015.82 1015.97 1016.14 1016.34 1016.49 1016.61 1016.78 1016.90 1016.97 1017.05 1017.09 1017.14 1017.22 1017.22 1017.22 1017.26 1017.29 1017.29 1017.34 1017.34 1017.29 1017.29 1017.26 1017.22 1017.22 1017.22 1017.22 1017.22 1017.14 1017.14 1017.05 1016.93 1016.85 1016.82 1016.73 1016.70 1016.61 1016.53 1016.41 1016.38 1016.26 1016.22
1011.90 1012.02 1012.09 1012.22 1012.38 1012.49 1012.66 1012.78 1012.93 1013.09 1013.22 1013.38 1013.49 1013.66 1013.82 1013.93 1014.09 1014.22 1014.38 1014.49 1014.66 1014.82 1014.93 1015.09 1015.26 1015.41 1015.53 1015.70 1015.85 1016.05 1016.22 1016.38 1016.53 1016.61 1016.73 1016.85 1016.93 1016.97 1017.02 1016.97 1016.97 1016.97 1017.02 1017.05 1017.05 1017.05 1017.05 1017.05 1016.97 1016.93 1016.93 1016.93 1016.93 1016.93 1016.85 1016.82 1016.78 1016.70 1016.58 1016.49 1016.41 1016.38 1016.34 1016.34 1016.22 1016.14 1016.05 1016.02 1015.93
1011.93 1011.97 1012.09 1012.22 1012.38 1012.49 1012.61 1012.73 1012.85 1013.02 1013.14 1013.29 1013.41 1013.58 1013.78 1013.93 1014.09 1014.22 1014.34 1014.46 1014.58 1014.70 1014.82 1014.93 1015.14 1015.26 1015.41 1015.58 1015.78 1015.93 1016.14 1016.29 1016.38 1016.53 1016.66 1016.70 1016.78 1016.82 1016.82 1016.82 1016.78 1016.73 1016.73 1016.82 1016.82 1016.78 1016.73 1016.73 1016.70 1016.66 1016.66 1016.66 1016.66 1016.66 1016.58 1016.53 1016.41 1016.29 1016.22 1016.09 1016.05 1015.97 1015.93 1015.93 1015.85 1015.82 1015.73 1015.66 1015.66
1011.97 1012.02 1012.09 1012.22 1012.38 1012.46 1012.58 1012.70 1012.82 1012.93 1013.09 1013.22 1013.38 1013.53 1013.73 1013.90 1014.02 1014.17 1014.26 1014.38 1014.49 1014.66 1014.78 1014.90 1015.05 1015.22 1015.38 1015.53 1015.70 1015.85 1016.05 1016.17 1016.26 1016.38 1016.46 1016.53 1016.58 1016.58 1016.61 1016.53 1016.53 1016.49 1016.49 1016.49 1016.49 1016.49 1016.49 1016.46 1016.46 1016.41 1016.41 1016.41 1016.41 1016.38 1016.34 1016.26 1016.14 1016.02 1015.90 1015.82 1015.70 1015.61 1015.58 1015.53 1015.49 1015.46 1015.38 1015.38 1015.34
1012.05 1012.05 1012.09 1012.22 1012.34 1012.46 1012.53 1012.66 1012.82 1012.93 1013.09 1013.17 1013.34 1013.49 1013.73 1013.85 1013.97 1014.09 1014.22 1014.38 1014.49 1014.61 1014.78 1014.93 1015.09 1015.22 1015.38 1015.53 1015.70 1015.85 1015.97 1016.09 1016.14 1016.22 1016.29 1016.38 1016.38 1016.38 1016.38 1016.29 1016.26 1016.22 1016.22 1016.22 1016.22 1016.22 1016.22 1016.22 1016.22 1016.22 1016.22 1016.22 1016.22 1016.17 1016.09 1016.02 1015.93 1015.78 1015.66 1015.49 1015.41 1015.34 1015.26 1015.22 1015.17 1015.14 1015.09 1015.05 1014.97
1012.05 1012.09 1012.14 1012.22 1012.34 1012.41 1012.53 1012.66 1012.82 1012.93 1013.09 1013.22 1013.38 1013.53 1013.73 1013.82 1013.97 1014.09 1014.22 1014.38 1014.53 1014.61 1014.78 1014.93 1015.09 1015.22 1015.38 1015.49 1015.70 1015.82 1015.90 1016.02 1016.09 1016.14 1016.14 1016.17 1016.17 1016.17 1016.14 1016.09 1016.05 1015.97 1015.97 1016.02 1015.97 1015.97 1015.97 1015.97 1015.97 1015.97 1016.02 1016.02 1016.02 1015.93 1015.90 1015.82 1015.66 1015.53 1015.41 1015.29 1015.17 1015.05 1014.97 1014.93 1014.90 1014.82 1014.82 1014.73 1014.66
1012.09 1012.14 1012.22 1012.26 1012.34 1012.41 1012.53 1012.66 1012.82 1012.93 1013.09 1013.22 1013.41 1013.58 1013.73 1013.82 1013.93 1014.09 1014.22 1014.38 1014.49 1014.58 1014.73 1014.93 1015.05 1015.17 1015.34 1015.49 1015.66 1015.78 1015.85 1015.93 1015.97 1016.02 1016.02 1016.02 1015.97 1015.97 1015.93 1015.90 1015.82 1015.78 1015.78 1015.82 1015.78 1015.78 1015.78 1015.78 1015.78 1015.82 1015.82 1015.82 1015.82 1015.73 1015.66 1015.58 1015.41 1015.29 1015.17 1015.05 1014.90 1014.82 1014.73 1014.70 1014.61 1014.53 1014.49 1014.46 1014.38
1012.17 1012.22 1012.26 1012.29 1012.38 1012.46 1012.58 1012.70 1012.85 1013.02 1013.17 1013.34 1013.46 1013.61 1013.73 1013.82 1013.97 1014.14 1014.26 1014.38 1014.49 1014.58 1014.73 1014.85 1015.02 1015.17 1015.34 1015.49 1015.58 1015.66 1015.73 1015.82 1015.82 1015.85 1015.85 1015.82 1015.82 1015.82 1015.78 1015.70 1015.66 1015.58 1015.58 1015.58 1015.58 1015.58 1015.58 1015.53 1015.58 1015.61 1015.61 1015.66 1015.61 1015.53 1015.49 1015.38 1015.22 1015.05 1014.93 1014.82 1014.66 1014.58 1014.53 1014.46 1014.38 1014.29 1014.22 1014.09 1014.05
1012.22 1012.26 1012.34 1012.38 1012.41 1012.53 1012.61 1012.78 1012.93 1013.09 1013.26 1013.38 1013.49 1013.61 1013.73 1013.85 1013.97 1014.17 1014.34 1014.46 1014.53 1014.66 1014.73 1014.85 1015.02 1015.14 1015.26 1015.38 1015.49 1015.53 1015.58 1015.61 1015.61 1015.66 1015.66 1015.66 1015.58 1015.58 1015.53 1015.53 1015.49 1015.41 1015.38 1015.38 1015.41 1015.41 1015.38 1015.38 1015.38 1015.41 1015.46 1015.46 1015.41 1015.38 1015.29 1015.17 1015.05 1014.85 1014.73 1014.66 1014.53 1014.41 1014.29 1014.22 1014.17 1014.09 1013.93 1013.82 1013.73
1012.29 1012.38 1012.41 1012.49 1012.53 1012.58 1012.70 1012.85 1013.02 1013.17 1013.29 1013.38 1013.49 1013.61 1013.78 1013.93 1014.09 1014.22 1014.38 1014.53 1014.58 1014.66 1014.78 1014.85 1015.02 1015.14 1015.22 1015.34 1015.38 1015.46 1015.46 1015.41 1015.41 1015.46 1015.49 1015.41 1015.38 1015.38 1015.38 1015.34 1015.26 1015.22 1015.17 1015.17 1015.17 1015.17 1015.17 1015.17 1015.17 1015.22 1015.22 1015.29 1015.26 1015.17 1015.09 1015.05 1014.90 1014.73 1014.61 1014.53 1014.46 1014.34 1014.22 1014.05 1013.97 1013.90 1013.82 1013.66 1013.53
Wind_Speed
10 8 6 7 6 6 5 5 5 5 5 6 6 6 6 6 6 6 6 6 6 6 6 6 6 7 8 10 11 10 10 9 10 10 9 9 8 8 8 7 7 7 6 6 6 5 5 4 3 2 2 2 2 2 2 2 2 2 3 3 3 3 3 4 4 5 5 6 5
11 9 8 7 7 6 5 5 5 5 5 5 5 6 6 6 6 6 7 7 6 6 6 6 7 8 9 11 11 10 10 10 10 10 9 9 8 8 8 7 7 7 7 6 6 5 4 4 4 3 2 2 2 3 3 3 3 3 4 4 3 3 3 3 4 4 5 5 5
11 10 9 9 8 7 6 5 6 6 7 6 6 6 6 6 6 6 6 7 7 7 6 6 7 8 10 11 10 10 9 9 10 10 9 8 8 8 8 7 7 7 7 6 5 5 4 4 4 3 3 2 3 3 3 3 3 3 4 4 3 3 3 3 3 4 4 3 4
11 10 10 10 10 9 8 6 7 8 8 6 6 7 7 6 6 6 6 7 8 7 6 6 7 8 9 10 10 10 9 9 10 9 9 8 8 8 8 7 7 7 6 6 5 5 5 5 3 3 3 3 4 4 3 3 3 3 3 3 3 3 3 3 3 3 3 3 4
11 10 10 10 11 10 9 8 8 8 8 6 6 7 7 6 6 6 6 7 7 7 7 8 8 8 9 10 11 11 10 10 10 9 8 8 8 8 8 8 8 7 7 6 6 6 5 5 3 3 3 3 3 3 3 3 3 3 3 2 2 2 3 3 3 3 3 3 3
10 10 9 9 10 9 8 8 9 9 8 7 8 8 7 6 6 6 6 7 7 8 9 10 9 9 10 10 11 11 10 10 9 9 8 9 8 8 8 8 8 7 7 6 6 6 5 5 3 3 3 3 3 3 4 4 3 3 3 3 3 3 3 3 3 3 3 4 4
9 9 9 9 10 9 8 9 9 9 8 7 9 10 9 8 8 8 9 8 8 8 9 9 9 9 10 11 10 10 10 9 9 9 9 8 8 8 8 8 8 7 7 7 7 6 6 5 3 3 3 3 3 4 4 4 4 4 4 4 3 3 3 4 3 3 4 5 6
9 9 9 9 10 10 10 10 9 9 8 7 9 10 11 10 10 10 10 9 8 9 8 8 9 10 11 11 11 10 10 10 9 9 9 8 9 9 9 8 8 8 7 7 7 7 6 5 4 3 3 3 3 3 4 5 5 5 4 4 4 3 3 3 3 4 4 6 7
8 8 8 8 9 9 10 10 10 9 9 8 10 11 11 11 11 11 11 9 9 9 9 8 10 11 12 12 11 11 10 10 10 9 9 8 9 9 9 8 8 8 7 7 7 7 7 5 4 4 4 3 3 4 4 5 6 6 5 5 4 4 4 4 4 5 6 6 7
8 8 8 8 9 9 9 9 9 10 10 10 11 11 11 11 12 11 10 9 9 9 9 9 11 12 12 12 11 10 10 9 9 9 9 9 9 9 9 8 8 8 7 7 7 7 7 5 5 4 4 4 4 4 5 5 6 6 6 4 5 5 6 5 6 6 6 6 6
10 9 9 8 9 9 9 9 8 9 9 9 11 11 11 11 11 11 9 8 9 10 10 10 11 12 12 11 10 10 10 9 9 9 9 9 9 9 9 8 8 8 8 7 7 6 6 5 5 5 5 5 5 5 5 6 6 7 6 5 6 6 7 7 6 6 6 5 6
10 10 9 9 9 9 9 9 8 8 9 9 10 11 11 11 11 11 10 10 10 11 11 10 11 11 11 9 10 10 10 9 9 9 9 10 10 9 9 9 8 8 8 8 7 6 5 5 5 6 6 6 5 5 6 7 7 7 7 7 7 7 7 7 6 5 5 5 6
10 10 10 10 10 9 9 8 8 8 9 10 10 10 10 10 11 11 11 11 11 10 10 10 10 10 10 9 9 9 9 9 10 10 9 10 9 9 9 9 8 8 8 8 7 6 5 5 6 6 7 7 6 6 6 7 7 7 7 7 7 7 7 7 6 6 6 6 7
11 10 10 10 10 10 9 9 8 8 9 10 10 10 10 10 11 11 11 11 11 10 9 10 9 9 9 9 9 9 10 10 10 10 10 10 9 9 9 8 8 8 7 7 7 7 6 6 6 7 7 7 7 7 7 7 7 7 7 7 7 7 7 7 6 6 6 7 8
10 10 10 10 10 9 9 9 7 8 8 9 9 9 9 9 10 10 10 10 9 9 8 9 8 8 8 9 10 10 10 10 10 10 10 10 10 10 9 8 7 7 7 6 7 7 7 6 6 6 7 7 7 7 7 7 7 6 6 6 7 7 7 7 7 7 7 7 8
10 10 9 10 9 9 8 8 7 7 8 8 8 8 8 8 8 8 8 9 8 8 8 8 8 8 8 9 9 10 10 10 10 10 10 10 10 10 9 8 7 6 6 6 6 6 6 6 6 6 7 7 7 7 7 7 6 6 6 7 7 7 7 7 7 7 7 8 8
9 9 9 9 9 9 9 8 7 6 7 8 8 7 7 7 7 7 8 8 8 8 8 9 8 8 8 8 9 9 9 9 10 10 10 10 10 9 9 8 7 7 6 6 6 6 6 5 5 6 6 7 6 6 7 6 6 6 7 7 7 8 8 8 7 7 7 8 9
8 8 8 9 10 9 9 8 7 7 8 8 8 7 7 7 7 8 8 8 8 9 10 10 8 8 8 9 8 8 8 9 9 9 9 9 9 9 8 8 8 7 6 6 6 6 6 6 6 6 7 6 6 6 6 6 7 7 8 8 8 8 8 7 7 7 8 9 10
8 9 9 9 10 10 9 9 8 8 8 9 8 8 8 8 9 9 8 8 9 10 10 10 9 9 9 10 9 8 8 8 9 9 9 8 8 8 8 8 8 7 7 6 6 6 6 7 7 7 7 7 6 6 7 7 7 8 8 8 8 7 7 7 7 8 9 10 11
9 9 10 10 10 10 10 10 10 10 9 9 10 10 10 10 10 10 10 10 10 10 10 10 10 10 9 10 9 8 8 7 8 8 8 8 8 8 8 8 7 7 6 6 6 6 6 7 8 8 8 8 8 7 7 8 8 7 7 7 7 7 7 8 9 10 10 11 12
10 10 10 10 10 11 11 11 10 10 10 10 10 11 10 10 10 10 10 10 10 10 10 10 10 10 10 10 10 9 8 6 7 8 8 8 8 8 7 7 7 6 6 6 6 6 6 7 8 8 8 8 7 7 7 7 7 8 8 8 8 8 9 10 11 11 12 12 13
10 10 10 10 10 11 11 11 10 10 10 10 10 11 11 10 10 10 10 9 10 10 10 10 10 10 11 10 10 9 8 7 7 8 8 8 7 7 7 6 6 6 6 6 6 6 6 7 7 7 6 6 6 6 7 7 8 9 9 10 10 10 11 11 12 12 12 13 13
9 9 9 9 9 10 10 10 10 10 10 10 10 11 11 11 10 10 10 9 10 10 10 10 10 10 10 10 9 9 9 8 8 8 8 8 7 7 7 6 6 6 6 6 6 6 6 6 6 5 5 5 5 6 7 8 9 8 8 9 10 11 11 12 12 12 12 13 13
8 8 7 7 9 9 10 10 10 10 10 10 11 11 11 11 10 10 10 10 10 10 10 9 8 9 9 9 9 9 9 9 9 8 8 8 8 7 7 6 6 6 6 6 6 7 7 6 5 5 5 5 6 7 8 9 8 8 8 9 10 11 12 12 12 13 13 13 13
8 8 8 7 9 9 10 10 10 10 11 11 11 11 11 11 11 11 10 11 11 10 10 9 8 8 8 8 9 9 9 9 9 9 9 8 8 8 7 6 6 5 5 6 9 11 11 9 7 6 6 6 7 8 9 9 8 9 9 10 11 11 12 12 13 13 14 14 13
8 8 8 9 9 10 10 10 10 10 10 10 11 11 11 11 11 11 11 11 11 10 10 9 9 8 8 8 8 8 8 8 8 8 8 8 8 8 7 6 6 5 5 8 12 14 15 14 12 10 8 7 8 8 8 7 9 10 10 11 11 11 11 12 13 13 14 13 13
8 8 8 8 9 10 10 10 10 10 10 10 11 11 11 11 10 11 11 11 11 10 9 9 8 8 8 7 8 8 8 7 7 7 8 7 8 8 7 6 5 5 6 10 13 15 16 16 16 15 12 9 8 8 7 6 8 9 10 10 11 11 12 13 14 14 14 13 13
8 8 8 8 9 10 10 10 10 10 10 10 11 11 11 11 11 11 11 11 11 10 9 8 7 7 6 6 7 8 8 7 7 7 6 6 7 7 7 6 5 5 7 11 13 15 16 16 17 17 16 13 10 8 7 7 8 8 9 9 10 12 13 13 13 13 13 13 13
8 8 8 9 9 10 10 10 10 10 11 11 11 11 11 11 11 11 11 11 11 10 8 7 6 6 6 6 7 7 8 7 7 6 6 6 7 7 7 6 6 7 9 12 14 15 16 17 17 18 18 17 12 8 7 7 7 8 9 9 10 11 11 12 11 11 12 13 13
7 8 8 9 9 10 10 10 10 10 10 10 10 10 11 11 11 11 11 12 11 10 9 7 7 7 7 8 7 7 7 7 6 6 6 7 7 7 7 7 6 7 9 13 14 15 16 17 18 19 19 19 15 10 7 7 8 8 9 9 10 11 12 12 13 13 13 12 12
7 8 8 9 9 10 10 10 10 10 10 9 10 11 11 11 11 11 11 11 10 10 9 8 8 8 8 8 8 8 7 7 7 7 7 7 8 8 8 8 7 8 9 13 15 16 17 18 18 19 19 19 16 12 8 8 9 9 10 10 11 13 13 13 13 13 14 14 14
7 8 8 9 9 9 10 10 10 10 10 11 11 11 11 11 11 11 10 10 10 9 9 9 9 9 9 8 8 8 7 7 7 7 7 6 7 7 8 8 8 8 10 14 16 17 18 18 19 19 19 19 16 13 10 9 10 10 11 12 13 14 14 13 13 14 15 16 15
7 7 8 8 9 9 9 10 10 10 11 11 11 11 11 10 10 9 9 9 9 10 10 10 10 9 9 9 8 8 7 7 7 7 7 7 7 8 8 8 8 9 11 14 16 17 18 18 19 19 19 19 16 13 11 11 11 11 11 12 13 14 15 15 15 15 16 16 16
7 7 7 8 8 9 9 9 10 10 11 11 11 11 10 9 9 9 9 8 8 9 9 9 9 9 8 8 7 7 7 6 6 7 7 7 8 8 9 8 7 9 12 15 16 17 17 18 18 19 19 19 15 12 11 12 12 12 12 13 13 13 14 14 15 16 16 17 16
7 7 7 7 8 8 9 9 10 10 10 11 11 10 10 9 9 9 9 8 8 8 8 7 7 7 6 6 6 6 6 6 7 7 7 8 8 9 10 10 9 10 13 15 16 17 17 17 18 18 18 16 12 10 11 12 13 13 14 15 15 14 14 13 14 15 16 16 16
7 7 7 7 7 8 8 9 9 10 10 10 10 9 9 9 9 8 8 8 7 7 7 7 6 6 6 5 5 5 6 6 7 7 8 8 9 10 11 11 11 12 13 15 16 16 17 17 18 18 17 14 10 9 9 11 11 13 14 15 15 15 15 14 14 14 14 14 15
7 7 7 7 7 8 8 9 9 9 10 9 9 9 9 9 8 8 7 7 7 7 7 6 6 6 5 5 5 5 5 5 6 7 8 9 9 10 11 12 12 12 12 13 15 16 16 17 17 17 15 12 9 9 9 10 10 11 13 14 14 15 14 13 13 13 13 13 14
6 6 6 7 7 7 7 8 8 9 9 9 8 8 8 8 7 7 7 6 7 7 6 6 5 5 5 4 4 5 5 6 7 8 9 10 10 10 11 12 12 11 10 11 13 14 15 16 17 16 14 10 9 9 9 9 10 11 11 12 12 12 12 11 10 10 11 13 15
5 5 6 6 6 7 7 7 8 8 8 8 8 8 8 7 6 6 6 5 5 5 5 5 5 4 4 4 4 5 6 7 8 9 10 10 10 11 11 12 11 11 10 11 12 14 15 16 17 17 15 12 10 9 9 9 10 11 11 11 11 11 12 11 10 10 11 13 16
5 5 5 5 6 6 6 7 7 7 7 7 7 7 7 7 6 6 5 5 4 4 4 4 4 3 3 4 4 6 7 8 8 9 10 10 11 11 12 12 12 12 12 12 13 14 15 16 17 17 16 12 10 9 9 9 10 11 11 10 10 10 10 10 10 10 10 12 14
3 4 4 5 5 5 5 6 6 6 7 7 7 6 6 6 5 5 5 4 4 4 3 3 3 3 4 4 5 6 7 8 8 9 10 10 11 11 11 11 12 12 12 12 13 14 15 16 17 17 16 12 10 9 8 8 9 11 11 11 10 10 10 10 10 10 10 11 11
Wind_Direction
183 173 163 164 165 167 166 165 161 158 160 164 165 162 158 156 159 162 165 168 170 173 175 176 178 176 173 170 171 172 173 173 175 177 179 180 178 175 171 167 162 160 160 162 164 167 172 175 172 172 178 194 216 225 226 222 219 226 233 236 240 245 250 251 254 258 260 261 260
180 171 161 162 162 161 158 156 154 154 156 160 158 155 154 157 161 165 168 171 172 173 173 172 174 172 170 169 171 172 173 173 175 176 177 177 175 172 169 166 164 164 164 166 167 168 169 174 173 175 180 190 208 216 218 212 211 219 229 234 236 240 244 249 253 260 264 268 267
178 170 165 166 166 163 159 158 156 155 155 154 153 154 156 161 165 167 170 172 171 170 168 167 168 168 167 167 169 171 172 173 173 174 174 174 173 171 170 168 166 166 167 167 169 168 169 174 176 179 184 191 204 212 215 211 207 213 224 234 237 239 241 245 252 258 262 264 264
178 173 170 171 171 169 166 162 159 156 155 153 155 159 163 167 168 168 168 168 168 167 165 165 164 164 165 166 168 170 171 172 171 171 172 172 172 171 170 169 167 168 168 169 171 172 173 176 177 183 192 202 209 213 213 209 207 209 217 227 235 240 242 245 249 252 255 257 259
180 177 175 175 174 171 167 163 161 159 157 155 159 164 169 172 169 165 164 165 167 167 166 165 163 163 165 166 167 168 169 171 170 171 171 173 172 172 171 170 169 168 168 171 173 176 178 180 179 185 198 207 213 216 217 214 212 212 213 219 227 234 240 245 247 249 249 251 253
182 178 175 174 173 170 165 164 164 163 161 161 166 170 171 170 166 164 165 167 167 166 164 165 163 162 163 165 167 167 168 169 170 171 172 173 172 172 172 172 170 169 169 172 174 177 180 183 182 188 199 209 216 221 222 220 220 220 219 222 223 226 230 234 239 243 245 247 249
182 177 173 171 171 168 166 167 167 165 162 165 173 175 174 170 167 167 168 167 165 165 165 166 165 163 163 165 166 167 167 169 170 172 173 172 173 173 173 172 171 170 170 171 173 176 180 185 187 191 198 205 212 217 219 220 222 223 225 227 227 227 227 231 235 241 247 250 252
180 176 173 171 171 170 169 171 170 167 165 171 179 180 176 171 170 170 169 168 167 167 168 167 166 165 165 166 167 167 168 168 170 173 174 172 172 172 172 171 172 172 172 172 175 177 179 183 189 195 198 200 207 213 215 216 219 224 228 233 236 233 229 227 228 235 243 249 251
178 176 173 171 172 172 171 173 172 171 171 176 182 182 178 173 172 172 172 172 170 169 168 167 167 167 166 167 168 168 168 169 170 172 173 173 172 171 171 170 172 173 173 174 178 180 181 183 191 197 200 201 206 210 213 215 219 223 228 235 239 240 237 231 228 232 239 245 248
177 175 174 172 174 173 171 172 173 174 174 177 182 182 179 175 175 175 175 172 168 167 168 168 168 167 167 169 168 167 167 168 170 171 173 173 173 172 170 170 172 173 174 176 179 182 184 187 194 199 203 207 211 214 216 217 220 224 227 233 238 242 243 241 238 238 240 244 246
178 177 175 174 174 172 171 171 174 176 177 177 181 181 179 176 177 177 174 165 165 167 170 169 168 168 168 169 168 167 167 168 169 171 173 174 174 172 171 170 173 174 175 176 179 183 186 191 197 202 206 211 214 217 220 221 223 226 229 233 237 241 244 245 244 245 246 248 250
180 178 177 175 174 172 171 172 175 177 178 177 180 180 178 177 178 175 169 163 166 168 169 167 168 168 168 167 167 167 167 168 169 171 173 175 174 172 171 170 174 177 177 176 177 181 187 193 199 205 210 214 216 218 220 222 225 228 230 234 237 239 242 244 245 245 247 249 252
181 179 177 176 173 172 172 174 175 177 178 179 179 178 177 177 176 172 168 166 168 167 166 166 167 167 167 166 166 166 167 169 170 171 172 173 172 171 170 170 175 178 179 177 178 181 187 194 201 207 213 217 219 221 221 222 225 228 231 234 236 238 241 242 242 243 245 247 250
182 180 178 176 173 173 174 176 177 178 179 180 179 177 175 175 174 171 169 168 167 165 162 163 166 168 168 166 166 167 168 169 170 171 171 172 171 170 170 170 175 178 179 178 180 184 189 194 201 208 215 221 224 226 226 225 227 228 230 232 235 237 239 241 240 241 242 244 248
184 180 177 174 173 174 177 178 179 179 179 179 177 175 174 173 172 170 168 166 163 159 158 161 165 166 167 167 167 168 168 169 170 171 171 170 170 170 170 169 173 177 179 179 182 186 191 196 203 210 217 223 227 230 232 231 231 230 230 231 234 236 238 240 240 239 240 242 246
184 179 174 172 174 176 178 179 179 178 178 177 174 171 169 167 165 164 163 161 157 155 156 161 162 164 165 167 168 168 169 170 171 171 171 170 170 170 170 168 171 175 179 180 184 188 193 197 205 213 220 226 230 233 235 236 236 235 233 233 235 237 239 240 239 239 239 241 244
181 176 173 174 176 178 179 180 178 176 174 172 168 164 161 158 157 159 161 159 156 156 160 164 162 163 164 168 169 169 170 171 172 172 172 171 170 170 170 167 169 173 178 180 185 189 192 195 206 215 222 228 231 235 237 239 240 240 239 237 238 238 239 239 238 238 238 240 243
180 176 175 176 179 180 180 179 176 173 169 166 162 159 156 155 157 160 161 160 159 160 163 165 165 165 166 168 170 171 172 172 173 173 172 170 169 169 168 166 168 172 177 181 185 189 192 195 205 214 222 227 230 233 236 239 241 242 241 241 240 239 238 237 236 236 238 241 244
182 179 178 180 181 181 180 180 176 172 168 165 163 161 160 160 161 162 163 163 164 164 165 165 166 167 168 169 170 171 172 173 172 172 170 168 167 168 169 167 168 172 176 180 186 192 196 201 208 215 221 225 227 229 232 235 238 240 241 242 241 240 238 236 236 238 240 243 245
186 183 182 183 182 182 182 182 179 175 172 168 167 166 165 165 165 165 166 167 167 167 166 167 168 169 170 170 170 171 171 171 170 169 168 166 167 168 169 169 167 169 172 176 184 191 200 208 214 218 222 225 225 226 228 231 234 236 238 240 241 240 238 238 240 241 242 244 245
191 188 186 185 184 184 185 185 182 178 174 170 169 168 167 167 168 169 169 169 168 168 169 170 170 170 171 171 171 170 169 167 168 168 167 166 168 169 169 167 164 164 167 175 183 191 201 211 218 222 225 228 227 225 225 229 232 234 237 240 241 240 239 240 241 241 241 242 243
194 191 188 186 185 186 186 185 182 178 174 171 170 169 168 169 170 171 169 167 168 170 172 174 174 173 172 172 170 169 166 165 167 167 167 167 170 171 171 166 159 158 165 177 184 192 201 213 221 226 229 231 231 229 229 231 236 239 242 244 245 246 246 246 245 244 242 242 242
195 190 187 186 186 187 186 184 181 176 173 171 170 170 170 172 172 171 169 169 171 174 175 175 175 174 172 170 168 166 164 163 165 167 169 170 171 173 172 165 158 161 170 182 186 191 199 212 222 228 231 233 234 235 236 238 241 243 245 248 251 252 253 253 252 250 248 247 245
192 188 184 184 187 188 187 184 181 177 175 173 172 172 172 173 173 172 171 173 175 176 176 175 174 172 170 167 166 165 164 163 165 168 171 173 174 174 173 170 167 172 179 187 191 194 197 205 214 221 226 230 233 237 239 239 239 241 244 248 252 255 257 257 256 255 253 252 250
190 187 184 185 188 188 188 185 182 180 178 175 174 174 175 175 174 174 174 176 177 177 176 173 170 167 166 165 167 167 167 167 168 170 173 176 177 177 177 179 180 181 186 193 202 204 206 207 207 209 215 221 228 232 234 233 231 233 237 243 248 253 256 257 256 255 253 252 251
190 187 186 187 188 189 189 187 185 182 179 176 175 176 176 176 175 175 175 176 177 177 175 171 167 165 165 165 167 169 170 170 172 173 175 179 181 182 184 189 191 189 191 199 208 212 214 216 214 213 214 219 225 228 228 224 223 227 233 238 244 249 254 257 257 256 255 253 250
190 188 187 186 188 190 190 188 186 183 181 177 177 178 178 177 176 176 176 177 176 175 172 168 165 164 164 164 167 170 171 172 174 176 179 182 185 187 191 197 198 192 192 201 210 216 220 223 223 222 222 225 228 228 227 224 223 225 229 234 240 245 250 254 257 258 258 257 254
191 187 186 185 188 191 191 188 187 186 184 182 181 180 179 177 177 177 177 176 174 171 168 166 164 163 164 165 169 172 173 173 174 177 181 186 191 195 199 203 205 199 198 204 213 220 225 228 230 230 230 232 235 235 233 233 232 232 233 235 240 243 246 250 253 256 257 258 256
188 185 184 186 190 193 192 190 190 190 188 185 183 181 180 180 180 179 177 176 173 171 169 167 165 165 167 169 171 173 175 176 177 179 184 191 199 204 208 211 213 212 211 213 220 225 230 233 235 236 236 236 238 239 238 237 240 243 245 245 246 247 248 249 250 252 254 256 257
186 185 186 189 193 195 196 195 194 192 190 187 185 183 183 183 182 181 179 177 176 175 172 168 167 170 172 171 170 172 176 180 181 184 189 197 204 211 215 219 220 222 224 226 230 233 236 238 239 240 240 240 242 243 242 240 242 245 249 253 254 254 255 256 256 256 256 257 258
189 189 191 194 197 198 198 197 196 194 192 189 188 187 187 186 186 184 182 179 177 175 172 168 170 173 174 171 171 174 178 182 185 190 196 203 211 216 221 225 226 229 232 234 238 240 241 243 244 244 245 245 245 245 244 242 244 247 251 254 256 257 258 259 259 259 259 260 260
195 194 196 198 200 201 200 198 197 196 195 193 191 191 190 190 189 187 184 180 176 174 173 172 173 175 176 174 174 176 179 183 189 194 200 205 214 221 227 232 233 234 236 237 241 243 245 247 248 249 250 250 250 249 248 247 248 249 252 254 255 256 257 257 258 259 259 260 260
201 200 200 201 203 203 202 200 198 198 197 196 194 193 192 191 189 187 185 180 177 176 176 176 175 177 178 177 177 179 182 188 195 201 206 211 218 226 232 238 239 239 239 240 243 245 247 249 250 252 253 254 254 254 252 251 252 252 253 253 253 252 253 253 255 256 257 258 258
207 205 204 205 205 205 203 201 200 199 199 198 196 194 191 188 187 186 184 180 178 178 178 177 176 177 178 178 178 182 187 194 200 207 212 217 224 230 236 240 242 242 242 244 245 247 249 251 253 255 257 258 258 257 256 256 257 258 258 258 257 255 253 252 252 254 255 256 257
211 210 208 207 207 206 205 203 201 200 199 199 197 193 190 187 187 185 183 179 176 175 175 173 171 172 174 176 179 186 194 202 210 215 219 224 229 235 240 243 245 245 245 246 248 250 252 255 257 259 261 262 262 260 260 260 261 262 262 262 262 261 259 256 255 255 255 256 257
212 214 212 209 208 207 206 203 202 201 199 199 196 192 189 188 187 184 180 174 172 170 168 165 165 167 171 177 185 195 204 213 221 226 230 232 236 241 245 248 250 249 248 248 250 252 255 257 259 261 263 264 263 262 262 263 264 264 265 265 265 265 264 262 260 259 258 257 257
214 216 215 212 210 208 206 203 201 200 199 197 194 191 189 188 184 179 173 169 169 168 166 163 165 170 176 183 193 205 214 221 230 236 241 242 243 246 249 253 254 254 252 252 253 255 257 258 260 262 264 265 263 263 263 265 266 266 267 267 267 267 266 266 264 262 260 258 258
217 218 217 215 212 208 204 201 199 198 197 196 193 191 188 186 179 172 167 167 169 167 164 163 169 175 182 191 204 216 224 230 236 242 246 248 248 250 253 256 258 258 257 256 257 258 260 261 263 264 264 265 264 264 266 267 268 269 269 269 269 269 268 267 266 264 261 258 257
217 217 218 217 212 207 202 198 196 195 195 196 193 190 186 182 172 164 160 163 164 161 160 162 171 179 188 200 216 228 235 237 239 243 247 250 251 253 255 258 261 262 261 260 260 262 263 264 266 266 267 266 266 266 268 269 270 271 271 272 273 273 271 270 269 267 265 262 261
213 214 216 216 211 205 199 194 192 192 194 196 193 188 182 175 161 150 147 152 153 153 155 164 177 189 202 213 227 238 243 245 244 245 247 251 254 254 256 258 262 264 264 263 263 263 264 265 266 267 267 267 267 267 269 271 272 273 274 275 276 277 276 274 273 272 271 270 268
203 205 208 210 206 200 194 190 189 190 193 195 188 179 168 157 145 139 140 146 149 152 158 172 193 208 217 225 234 243 249 252 251 251 252 254 256 256 257 259 262 264 265 265 264 264 265 265 266 267 268 268 267 268 270 272 274 275 276 277 277 278 279 279 277 275 274 275 274